Aswan, Egypt

10:09 PM EET on August 27, 2016 (GMT +0200)
Aswan International

Weather History for HESN - March, 2013

Change the Weather History Date:

Monday, March 25, 2013

  Actual Average Record
Temperature  
Mean Temperature 75 °F -  
Max Temperature 91 °F 90 °F 107 °F (2008)
Min Temperature 59 °F 66 °F 53 °F (1997)
Cooling Degree Days 10    
Growing Degree Days 25 (Base 50)    
Moisture  
Dew Point 29 °F    
Average Humidity 19    
Maximum Humidity 36    
Minimum Humidity 4    
Precipitation  
Precipitation 0.00 in 0.00 in - ()
Sea Level Pressure  
Sea Level Pressure 29.93 in    
Wind  
Wind Speed 7 mph ()    
Max Wind Speed 12 mph    
Max Gust Speed -    
Visibility 6.0 miles    
Events      
Averages and records for this station are not official NWS values.
T = Trace of Precipitation, MM = Missing Value Source: Averaged Metar Reports

Daily Weather History Graph

Daily Weather History Graph

Search for Another Location

Airport or City:

Trip Planner

Search our weather history database for the weather conditions in past years. The results will help you decide how hot, cold, wet, or windy it might be!

Date:

Astronomy

Mar. 25, 2013 Rise Set
Actual Time 5:47 AM EET 6:01 PM EET
Civil Twilight 5:25 AM EET 6:24 PM EET
Nautical Twilight 4:58 AM EET 6:50 PM EET
Astronomical Twilight 4:32 AM EET 7:17 PM EET
Moon 4:19 PM EET (3/25) 4:08 AM EET (3/25)
Length of Visible Light 12h 59m
Length of Day
12h 14m
Waxing Gibbous, 95% of the Moon is Illuminated
Mar 25
Waxing Gibbous
Mar 27
Full
Apr 3
Last Quarter
Apr 10
New
Apr 18
First Quarter

Hourly Weather History & Observations

Time (EET) Temp. Dew Point Humidity Pressure Visibility Wind Dir Wind Speed Gust Speed Precip Events Conditions
12:00 AM 68.0 °F 28.4 °F 23% 29.98 in - WNW 6.9 mph - N/A   Clear
1:00 AM 66.2 °F 28.4 °F 24% 29.98 in - NW 5.8 mph - N/A   Clear
2:00 AM 63 °F 29 °F 16% 29.96 in 6 mi North 5.8 mph - -  
2:00 AM 62.6 °F 28.4 °F 27% 29.95 in - North 5.8 mph - N/A   Clear
3:00 AM 62.6 °F 30.2 °F 30% 29.95 in - North 5.8 mph - N/A   Clear
4:00 AM 60.8 °F 30.2 °F 31% 29.95 in - North 4.6 mph - N/A   Clear
5:00 AM 60.8 °F 30.2 °F 31% 29.95 in - North 9.2 mph - N/A   Clear
6:00 AM 59.0 °F 32.0 °F 36% 29.98 in - North 6.9 mph - N/A   Clear
7:00 AM 60.8 °F 33.8 °F 36% 29.98 in - North 5.8 mph - N/A   Clear
8:00 AM 66 °F 36 °F 21% 30.00 in 6 mi North 8.1 mph - -  
8:00 AM 66.2 °F 35.6 °F 32% 30.01 in - North 8.1 mph - N/A   Clear
9:00 AM 71.6 °F 37.4 °F 29% 30.01 in - North 10.4 mph - N/A   Clear
10:00 AM 77.0 °F 37.4 °F 24% 30.01 in - NNE 8.1 mph - N/A   Clear
11:00 AM 82.4 °F 32.0 °F 16% 29.98 in - NNE 11.5 mph - N/A   Clear
12:00 PM 87.8 °F 26.6 °F 11% 29.95 in - NE 9.2 mph - N/A   Clear
1:00 PM 89.6 °F 26.6 °F 10% 29.95 in - NE 8.1 mph - N/A   Clear
2:00 PM 92 °F 28 °F 4% 29.87 in 6 mi NNW 11.5 mph - -   Clear
2:00 PM 89.6 °F 28.4 °F 11% 29.89 in - NNW 11.5 mph - N/A   Clear
3:00 PM 91.4 °F 28.4 °F 10% 29.86 in - NNE 6.9 mph - N/A   Clear
4:00 PM 91.4 °F 28.4 °F 10% 29.83 in - NNW 6.9 mph - N/A   Clear
5:00 PM 89.6 °F 30.2 °F 12% 29.86 in - NW 5.8 mph - N/A   Clear
6:00 PM 87.8 °F 30.2 °F 13% 29.86 in - NW 11.5 mph - N/A   Clear
7:00 PM 84.2 °F 30.2 °F 14% 29.86 in - NW 11.5 mph - N/A   Clear
8:00 PM 81 °F 24 °F 5% 29.86 in 6 mi NW 5.8 mph - -   Clear
8:00 PM 80.6 °F 23.0 °F 12% 29.86 in - NW 5.8 mph - N/A   Clear
9:00 PM 77.0 °F 23.0 °F 13% 29.89 in - NW 5.8 mph - N/A   Clear
10:00 PM 75.2 °F 23.0 °F 14% 29.89 in - North 4.6 mph - N/A   Clear
11:00 PM 75.2 °F 24.8 °F 15% 29.89 in - North 5.8 mph - N/A   Clear